Regional Weather Roundup
Issued by NWS

Home | Current Version | Previous Version | Graphics & Text | Print | Product List | Glossary On
Versions: 1 2 3 4 5 6 7 8 9 10 11 12 13 14 15 16 17 18 19 20 21 22 23 24 25 26 27 28 29 30 31 32 33 34 35 36 37 38 39 40 41 42 43 44 45 46 47 48 49 50
000
ASUS43 KOAX 291102
RWRNE

WEATHER ROUNDUP FOR NEBRASKA
NATIONAL WEATHER SERVICE OMAHA NE
600 AM CDT WED JUL 29 2015

NOTES: SATELLITE DATA IS BEING USED TO AUGMENT CLOUD COVER ABOVE
       12000 FEET.
       "FAIR" INDICATES FEW OR NO CLOUDS BELOW 12,000 FEET WITH NO
       SIGNIFICANT WEATHER AND/OR OBSTRUCTIONS TO VISIBILITY.

  * THESE STATIONS DO NOT REPORT WEATHER SUCH AS RAIN...SNOW OR FOG.

NEZ001>004-019>022-054>056-291200-
NEBRASKA PANHANDLE

CITY           SKY/WX    TMP DP  RH WIND       PRES   REMARKS
SCOTTSBLUFF    CLEAR     51  45  79 MISG      30.29S
ALLIANCE       CLEAR     42  39  89 SW6       30.29R
CHADRON        CLEAR     44  40  85 SW6       30.26S
KIMBALL        CLEAR     50  42  76 N3        30.30R
SIDNEY         CLEAR     51  42  71 NE7       30.30R
$$

NEZ057>060-069>072-079>082-291200-
SOUTHWEST NEBRASKA

CITY           SKY/WX    TMP DP  RH WIND       PRES   REMARKS
NORTH PLATTE   CLEAR     55  48  77 SE6       30.24R
IMPERIAL       CLEAR     54  48  80 CALM      30.26R
MCCOOK         MOCLDY    55  50  83 W5        30.23R
$$

NEZ005>010-023>029-035>040-094-291200-
NORTH CENTRAL NEBRASKA

CITY           SKY/WX    TMP DP  RH WIND       PRES   REMARKS
VALENTINE      CLEAR     47  43  86 SW7       30.21S
AINSWORTH      CLEAR     55  47  74 W6        30.20F
BROKEN BOW     PTCLDY    53  50  89 CALM      30.21S
O`NEILL        CLEAR     54  51  88 W5        30.17S
ORD            PTCLDY    53  50  89 CALM      30.19R
$$

NEZ041-046>049-061>064-073>077-083>087-291200-
SOUTH CENTRAL NEBRASKA

CITY           SKY/WX    TMP DP  RH WIND       PRES   REMARKS
GRAND ISLAND   CLEAR     56  52  86 NW3       30.18R
AURORA         CLEAR     57  56  97 N3        30.17S
HASTINGS       CLEAR     59  56  89 CALM      30.18R
KEARNEY *      CLEAR     57  52  82 NW5       30.20R
$$

NEZ011>018-030>034-042>045-291200-
NORTHEAST NEBRASKA

CITY           SKY/WX    TMP DP  RH WIND       PRES   REMARKS
NORFOLK        CLEAR     54  52  93 CALM      30.15R
BLAIR          CLEAR     61  58  90 CALM      30.12S
COLUMBUS *     CLEAR     52  45  76 CALM      30.16S
FREMONT        CLEAR     60  57  92 NW6       30.13S
TEKAMAH        CLEAR     59  57  93 CALM      30.12R
$$

NEZ050>053-065>068-078-088>093-291200-
SOUTHEAST NEBRASKA

CITY           SKY/WX    TMP DP  RH WIND       PRES   REMARKS
LINCOLN        CLEAR     59  58  96 N6        30.14R
OMAHA EPPLEY   PTCLDY    64  62  93 N6        30.12R
FALLS CITY     CLOUDY    73  68  84 NE9       30.08R
$$

NEZ044-045-051>053-067-291200-
OMAHA AREA

CITY           SKY/WX    TMP DP  RH WIND       PRES   REMARKS
OMAHA EPPLEY   PTCLDY    64  62  93 N6        30.12R
BLAIR          CLEAR     61  58  90 CALM      30.12S
FREMONT        CLEAR     60  57  92 NW6       30.13S
OFFUTT AFB     CLEAR     63  60  91 W6        30.10R
$$


USA.gov is the U.S. government's official web portal to all federal, state and local government web resources and services.